sat.trackr.live / text

‹ back to catalog

STARLINK-4152

NORAD 53136 · 2022-083E

PAYLOAD ACTIVE UNKNOWN

§ Identity

Operator
Country
US
Launch date
2022-07-17
Launch site
AFETR
Launch vehicle
Mass (kg)
RCS (m²)

Purposes: comms

External: N2YO · Heavens-Above · Gunter

§ Orbital elements

Epoch: 2026-05-24T20:30:22.542048Z

Period
95.44 min
Inclination
53.2143°
Eccentricity
0.0001110
Mean motion
15.08839249 rev/d
Perigee alt
539.0 km
Apogee alt
540.5 km
Semi-major
6,917.9 km
B*
4.2073e-5
RAAN
192.2046°
Arg perigee
79.9092°
Mean anomaly
280.2025°
Rev number
21,370

§ Raw data

STARLINK-41521 53136U 22083E   26144.85442757  .00000382  00000+0  42073-4 0  99942 53136  53.2143 192.2046 0001110  79.9092 280.2025 15.08839249213702

JSON: /api/v1/satellites/53136 · /tle

For live sub-satellite position, see the globe view (requires WebGL).

§ Visibility from observer

Set your observer location to see the next 7 days of passes ≥ 10°. The values pass through the URL so the page stays shareable.

No JS? Fill the form by hand. The geolocation button needs JavaScript.